STARLINK-1069 (44955 NORAD) Tracking and Keplerian Element Data

This shows tracking and keplerian element data for the satellite.

Feedback or suggestion? Click here.




ElementValue
Catalog44955
NameSTARLINK-1069
Epoch Orbit722
Epoch Day53.25001157
Epoch Year2020
RAAN167.1933
Inclination52.9957
Eccentricity0.0001471
Argument of Perigee19.4622
Mean Anonmoly111.6093
Mean Motion15.73117479
Decay Rate0.0038717
L11 44955U 20001AT 20053.25001157 .00387170 00000-0 26465-2 0 9992
L22 44955 52.9957 167.1933 0001471 19.4622 111.6093 15.73117479 7220

Live tracking and technical data element details for STARLINK-1069 (NORAD 44955). STARLINK-1069 can be tracked NOW for your location showing map with azimuth and elevation plus other details from your city location.

Track the satellite on the map from your city or location and see movement details for azimuth, elevation, latitude, longitude, range, height, and movement on the map or in text.







IsCatalogInMostPopularTable: catalog: 44955, numindb: 17
Update: records affected: 1



GetName: 44955 STARLINK-1069

Hit Count: updated at: Wed, 26 Feb 2020 17:20:44 GMT